Zurück zum Katalog

STARLINK-35081

AktivKommunikationVLEO
NORAD 66148·PAYLOAD·🇺🇸 United States

Gestartet Oct 25, 2025 von Cape Canaveral Space Force Station

Loading…

Nächste Überflüge (nächste 24 Stunden)

TLE

AktuellSource: CelesTrak SupGP

Epoche: Sep 14, 2026, 21:12 UTC

1 66148C 25240C   26257.88381944  .00057826  00000+0  17089-2 0  2576
2 66148  53.1572 259.9554 0001158  90.8753 218.4560 15.34353339    12

Verfolge STARLINK-35081 in Echtzeit mit AllMySat

Download on the App Store